SV2BZQ-2 Thessalonik GR current weather conditions

sailwx.info

Wind from 050

Air temperature 7.8° C
Dewpoint 3.8° C

Last reported at 2014-Nov-25 23:46 UTC.
Time now 2014-Nov-26 00:25 UTC

Location: N 40°41' E 022°51'.
View on Google Maps.

See reports from other nearby stations

  
Tides and Currents Weather Stations Pressure Air Temp Water Temp Dewpoint Dewpoint Depression Visibility Wind Speed Wind Dir Waves Ship Positions
date/time (UTC)wind fromknots sea level pressurealtimeterstation pressurevisibilityair tempwater tempwave heightnotes
2014-Nov-25 23:46 050 7.8
2014-Nov-25 23:38 050 0 gusting 2 7.8
2014-Nov-25 23:36 050 1 gusting 2 7.8
2014-Nov-25 23:26 051 7.8
2014-Nov-25 23:16 040 1 gusting 4 7.8
2014-Nov-25 23:08 049 1 gusting 5 7.8
2014-Nov-25 23:06 056 1 gusting 2 7.8
2014-Nov-25 22:56 057 0 gusting 2 7.8
2014-Nov-25 22:46 026 2 gusting 6 7.8
2014-Nov-25 22:26 045 2 gusting 4 7.8
2014-Nov-25 22:16 042 1 gusting 6 7.8
2014-Nov-25 21:56 049 1 gusting 2 7.8
2014-Nov-25 21:46 056 2 gusting 5 7.8
2014-Nov-25 21:26 043 2 gusting 4 7.8
2014-Nov-25 21:16 052 1 gusting 2 7.8
2014-Nov-25 20:56 070 0 gusting 2 7.8
2014-Nov-25 20:46 015 7.8
2014-Nov-25 20:26 003 7.2
2014-Nov-25 20:16 003 0 gusting 2 7.2
2014-Nov-25 19:56 262 7.2
2014-Nov-25 19:46 260 7.2
2014-Nov-25 19:36 260 7.2
2014-Nov-25 19:26 260 7.2
2014-Nov-25 19:21 260 6.7
2014-Nov-25 19:16 260 7.2
2014-Nov-25 19:06 260 7.2
2014-Nov-25 18:56 260 7.2
2014-Nov-25 18:51 260 6.7
2014-Nov-25 18:46 260 7.2
2014-Nov-25 18:26 260 7.2
2014-Nov-25 18:16 260 7.2
2014-Nov-25 18:05 260 7.2
2014-Nov-25 17:56 260 7.8
2014-Nov-25 17:50 286 7.8
2014-Nov-25 17:46 286 7.8
2014-Nov-25 17:36 286 0 gusting 0 8.3
2014-Nov-25 17:26 286 8.9
2014-Nov-25 17:20 286 8.3
2014-Nov-25 17:05 286 8.3
2014-Nov-25 16:51 286 8.9
2014-Nov-25 16:50 286 8.9
2014-Nov-25 16:41 286 9.4
2014-Nov-25 16:35 284 8.9
2014-Nov-25 16:21 284 9.4
2014-Nov-25 16:20 284 9.4
2014-Nov-25 16:11 283 10.0
2014-Nov-25 16:04 283 10.0
2014-Nov-25 15:51 281 10.6
2014-Nov-25 15:49 282 10.0
2014-Nov-25 15:41 281 10.6
2014-Nov-25 15:34 282 10.6
2014-Nov-25 15:21 281 11.1
2014-Nov-25 15:19 281 10.6
2014-Nov-25 15:11 281 11.1
2014-Nov-25 15:04 281 11.1
2014-Nov-25 14:51 281 11.1
2014-Nov-25 14:49 282 11.1
2014-Nov-25 14:35 281 11.1
2014-Nov-25 14:19 281 0 gusting 2 11.1
2014-Nov-25 14:03 281 0 gusting 1 11.7
2014-Nov-25 13:51 281 0 gusting 0 11.7
2014-Nov-25 13:48 281 11.7
2014-Nov-25 13:33 281 11.7
2014-Nov-25 13:18 279 11.7
2014-Nov-25 13:03 273 1 gusting 6 11.7
2014-Nov-25 12:51 296 1 gusting 2 11.7
2014-Nov-25 12:48 296 0 gusting 3 11.7
2014-Nov-25 12:33 279 11.7
2014-Nov-25 12:17 284 0 gusting 6 11.7
2014-Nov-25 12:02 275 6 gusting 8 11.7
2014-Nov-25 11:51 277 0 gusting 5 11.7
2014-Nov-25 11:47 276 2 gusting 6 11.7
2014-Nov-25 11:32 263 0 gusting 6 11.7
2014-Nov-25 11:17 282 1 gusting 6 11.7
2014-Nov-25 11:02 321 2 gusting 6 11.1
2014-Nov-25 10:51 274 1 gusting 2 11.7
2014-Nov-25 10:47 269 2 gusting 6 11.1
2014-Nov-25 10:31 280 1 gusting 5 11.7
2014-Nov-25 10:16 276 3 gusting 6 10.6
2014-Nov-25 10:01 293 4 gusting 6 10.6
2014-Nov-25 09:51 296 2 gusting 4 10.6
2014-Nov-25 09:46 271 2 gusting 7 10.6
2014-Nov-25 09:34 301 2 gusting 6 10.0
2014-Nov-25 09:16 296 3 gusting 9 9.4
2014-Nov-25 09:01 298 1 gusting 7 10.0
2014-Nov-25 08:51 294 0 gusting 2 9.4
2014-Nov-25 08:45 319 1 gusting 5 9.4
2014-Nov-25 08:31 312 5 gusting 6 9.4
2014-Nov-25 08:15 300 4 gusting 6 8.9
2014-Nov-25 08:01 342 1 gusting 1 8.3
2014-Nov-25 07:51 309 2 gusting 4 8.3
2014-Nov-25 07:45 312 3 gusting 7 7.8
2014-Nov-25 07:31 295 2 gusting 2 7.8
2014-Nov-25 07:14 313 3 gusting 6 6.7
2014-Nov-25 07:01 304 1 gusting 2 6.7
2014-Nov-25 06:59 304 6.7
2014-Nov-25 06:51 302 1 gusting 2 6.7
2014-Nov-25 06:44 314 0 gusting 3 6.1
2014-Nov-25 05:43 342 6.1
2014-Nov-25 05:31 342 0 gusting 1 6.1
2014-Nov-25 05:14 342 6.1
2014-Nov-25 05:01 319 2 gusting 4 6.1
2014-Nov-25 04:57 337 1 gusting 4 6.1
2014-Nov-25 04:51 316 1 gusting 2 6.1
2014-Nov-25 04:42 300 1 gusting 4 6.1
2014-Nov-25 04:31 300 6.1
2014-Nov-25 04:12 300 6.1
2014-Nov-25 04:01 300 6.1
2014-Nov-25 03:57 300 0 gusting 2 6.1
2014-Nov-25 03:51 300 6.1
2014-Nov-25 03:42 300 6.1
2014-Nov-25 03:31 300 0 gusting 2 6.1
2014-Nov-25 03:12 301 0 gusting 4 6.1
2014-Nov-25 03:01 300 1 gusting 2 6.7
2014-Nov-25 02:56 302 0 gusting 4 6.7
2014-Nov-25 02:51 300 1 gusting 2 6.7
2014-Nov-25 02:41 290 0 gusting 1 7.2
2014-Nov-25 02:31 344 7.2
2014-Nov-25 02:12 011 7.2
2014-Nov-25 02:01 011 7.2
2014-Nov-25 01:55 011 7.2
2014-Nov-25 01:41 011 7.8
2014-Nov-25 01:31 015 0 gusting 2 7.8
2014-Nov-25 01:11 018 7.8
2014-Nov-25 01:01 017 7.8
2014-Nov-25 00:41 019 1 gusting 1 7.8
2014-Nov-25 00:31 355 7.8
2014-Nov-25 00:11 355 7.8
2014-Nov-25 00:01 355 0 7.8
2014-Nov-24 23:54 355 1 gusting 4 7.8
2014-Nov-24 23:41 029 0 gusting 2 7.8
2014-Nov-24 23:31 028 0 gusting 2 8.3
2014-Nov-24 23:11 071 1 gusting 2 8.3
2014-Nov-24 23:01 012 0 gusting 2 8.3
2014-Nov-24 22:41 038 0 gusting 2 8.3
2014-Nov-24 22:31 056 1 gusting 2 8.3
2014-Nov-24 22:11 052 2 gusting 4 8.3
2014-Nov-24 22:01 012 2 gusting 5 8.9
2014-Nov-24 21:53 024 1 gusting 8 8.3
2014-Nov-24 21:41 012 4 gusting 6 8.9
2014-Nov-24 21:31 350 0 gusting 2 8.9
2014-Nov-24 21:11 303 4 gusting 6 9.4
2014-Nov-24 21:01 315 0 gusting 1 10.0
2014-Nov-24 20:53 056 10.0
2014-Nov-24 20:44 057 10.0
2014-Nov-24 20:31 070 2 gusting 1 10.0
2014-Nov-24 20:11 055 1 gusting 6 10.0
2014-Nov-24 20:01 062 1 gusting 5 10.0
2014-Nov-24 19:52 053 0 gusting 6 10.0
2014-Nov-24 19:41 066 2 gusting 6 10.0
2014-Nov-24 19:31 031 0 gusting 2 10.0
2014-Nov-24 19:11 348 9.4
2014-Nov-24 19:01 306 0 9.4
2014-Nov-24 18:52 306 2 gusting 5 9.4
2014-Nov-24 18:41 306 1 gusting 4 9.4
2014-Nov-24 18:31 313 1 gusting 2 9.4
2014-Nov-24 18:11 321 10.0
2014-Nov-24 18:01 321 10.0
2014-Nov-24 17:51 321 10.0
2014-Nov-24 17:41 321 10.0
2014-Nov-24 17:31 321 0 gusting 1 10.0
2014-Nov-24 17:11 323 1 gusting 4 10.0
2014-Nov-24 17:01 316 2 gusting 4 10.0
2014-Nov-24 16:51 314 2 gusting 4 10.0
2014-Nov-24 16:50 313 2 gusting 5 10.0
2014-Nov-24 16:41 304 0 gusting 2 10.0
2014-Nov-24 16:31 303 10.0
2014-Nov-24 16:11 297 0 gusting 2 10.0
2014-Nov-24 16:01 306 1 gusting 2 10.0
2014-Nov-24 15:51 307 2 gusting 4 10.0
2014-Nov-24 15:50 309 3 gusting 6 10.0
2014-Nov-24 15:41 317 1 gusting 2 10.6
2014-Nov-24 15:31 305 1 gusting 2 10.6
2014-Nov-24 15:11 307 4 gusting 4 10.6
2014-Nov-24 15:01 302 2 gusting 6 11.1
2014-Nov-24 14:51 290 2 gusting 4 11.1
2014-Nov-24 14:49 288 2 gusting 6 11.1
2014-Nov-24 14:34 301 1 gusting 5 11.1
2014-Nov-24 14:11 292 2 gusting 4 12.2
2014-Nov-24 14:04 302 2 gusting 7 11.7
2014-Nov-24 13:51 303 1 gusting 2 12.2
2014-Nov-24 13:50 304 2 gusting 7 12.2
2014-Nov-24 13:41 308 1 gusting 4 12.2
2014-Nov-24 13:34 284 2 gusting 7 12.2
2014-Nov-24 13:18 275 2 gusting 6 12.2
2014-Nov-24 13:03 286 3 gusting 6 12.2
2014-Nov-24 12:51 277 2 gusting 6 12.8
2014-Nov-24 12:48 287 1 gusting 6 12.2
2014-Nov-24 12:33 341 3 gusting 6 12.2
2014-Nov-24 12:18 320 1 gusting 6 12.2
2014-Nov-24 12:04 286 2 gusting 7 12.2
2014-Nov-24 11:51 290 4 gusting 6 12.2
2014-Nov-24 11:49 273 2 gusting 6 12.2
2014-Nov-24 11:32 273 1 gusting 6 12.2
2014-Nov-24 11:17 275 4 gusting 6 11.7
2014-Nov-24 11:02 292 1 gusting 9 11.7
2014-Nov-24 10:51 300 4 gusting 6 11.7
2014-Nov-24 10:47 280 4 gusting 7 11.1
2014-Nov-24 10:32 276 3 gusting 8 11.1
2014-Nov-24 10:17 302 5 gusting 8 10.6
2014-Nov-24 10:01 326 6 gusting 7 10.6
2014-Nov-24 09:51 285 2 gusting 5 10.6
2014-Nov-24 09:46 292 3 gusting 8 10.0
2014-Nov-24 09:31 301 4 gusting 6 10.0
2014-Nov-24 09:16 329 3 gusting 8 9.4
2014-Nov-24 09:01 323 2 gusting 6 9.4
2014-Nov-24 08:51 292 5 gusting 6 8.9
2014-Nov-24 08:45 279 2 gusting 8 8.9
2014-Nov-24 08:31 328 4 gusting 10 8.9
2014-Nov-24 08:15 323 4 gusting 9 7.8
2014-Nov-24 08:01 295 4 gusting 8 7.8
2014-Nov-24 07:51 309 6 gusting 8 7.2
2014-Nov-24 07:45 342 6 gusting 10 6.7
2014-Nov-24 07:31 320 2 gusting 6 6.7
2014-Nov-24 07:14 308 5 gusting 8 6.1
2014-Nov-24 07:01 309 6 gusting 8 6.1
2014-Nov-24 06:59 292 4 gusting 8 5.6
2014-Nov-24 06:51 324 5 gusting 7 5.6
2014-Nov-24 06:44 313 4 gusting 7 5.0
2014-Nov-24 06:31 318 4 gusting 6 5.0
2014-Nov-24 06:14 313 3 gusting 7 5.0
2014-Nov-24 06:01 320 4 gusting 6 4.4
2014-Nov-24 05:58 319 4 gusting 6 4.4
2014-Nov-24 05:51 305 2 gusting 6 4.4
2014-Nov-24 05:43 300 2 gusting 6 4.4
2014-Nov-24 05:31 302 1 gusting 6 4.4
2014-Nov-24 05:13 313 4 gusting 6 4.4
2014-Nov-24 05:01 301 1 gusting 4 4.4
2014-Nov-24 04:58 307 2 gusting 5 4.4
2014-Nov-24 04:51 301 2 gusting 2 5.0
2014-Nov-24 04:43 300 2 gusting 6 4.4
2014-Nov-24 04:31 304 2 gusting 2 5.0
2014-Nov-24 04:13 306 1 gusting 5 4.4
2014-Nov-24 04:01 303 1 gusting 2 5.0
2014-Nov-24 03:57 303 1 gusting 5 4.4
2014-Nov-24 03:51 303 5.0
2014-Nov-24 03:42 304 0 gusting 2 4.4
2014-Nov-24 03:31 303 5.0
2014-Nov-24 03:12 303 0 gusting 3 5.0
2014-Nov-24 03:01 312 2 gusting 4 5.0
2014-Nov-24 02:42 300 3 gusting 5 5.0
2014-Nov-24 02:31 305 2 gusting 4 5.6
2014-Nov-24 02:11 313 2 gusting 4 5.6
2014-Nov-24 02:01 308 2 gusting 4 5.6
2014-Nov-24 01:56 306 2 gusting 5 5.0
2014-Nov-24 01:41 297 2 gusting 4 5.6
2014-Nov-24 01:31 306 1 gusting 4 5.6
2014-Nov-24 01:12 310 0 gusting 5 5.6
2014-Nov-24 01:01 312 2 gusting 2 5.6
2014-Nov-24 00:41 292 2 gusting 4 5.6
2014-Nov-24 00:31 301 2 gusting 4 5.6
2014-Nov-24 00:11 302 4 gusting 6 5.6
2014-Nov-24 00:01 314 2 gusting 4 5.6